Defiance, OH

11:12 AM EST on November 22, 2019 (GMT -0500)
Defiance Memorial

Weather History for KDFI - September, 2019

Change the Weather History Date:

Sunday, September 29, 2019

  Actual Average Record
Temperature  
Mean Temperature 62 °F -  
Max Temperature 66 °F 69 °F 88 °F (1959)
Min Temperature 60 °F 45 °F 30 °F (1942)
Degree Days  
Heating Degree Days 3    
Growing Degree Days 12 (Base 50)    
Moisture  
Dew Point 57 °F    
Average Humidity 85    
Maximum Humidity 90    
Minimum Humidity 78    
Precipitation  
Precipitation 0.00 in - - ()
Sea Level Pressure  
Sea Level Pressure 30.25 in    
Wind  
Wind Speed 7 mph (ENE)    
Max Wind Speed 10 mph    
Max Gust Speed -    
Visibility 10 miles    
Events Rain    
Averages and records for this station are not official NWS values.
T = Trace of Precipitation, MM = Missing Value Source: NWS Daily Summary

Daily Weather History Graph

Daily Weather History Graph

Search for Another Location

Airport or City:

Astronomy

Sep. 29, 2019 Rise Set
Actual Time 7:32 AM EDT 7:23 PM EDT
Civil Twilight 7:04 AM EDT 7:50 PM EDT
Nautical Twilight 6:32 AM EDT 8:22 PM EDT
Astronomical Twilight 5:59 AM EDT 8:55 PM EDT
Moon 8:21 AM EDT (9/29) 8:22 PM EDT (9/29)
Length of Visible Light 12h 46m
Length of Day
11h 51m
New Moon, 1% of the Moon is Illuminated
Sep 29
New Moon
Oct 5
First Quarter
Oct 13
Full
Oct 21
Last Quarter
Oct 27
New

Hourly Weather History & Observations

Time (EDT) Temp. Dew Point Humidity Pressure Visibility Wind Dir Wind Speed Gust Speed Precip Events Conditions
12:53 AM 64.0 °F 59.0 °F 84% 30.24 in 10.0 mi East 6.9 mph - N/A   Overcast
1:53 AM 64.0 °F 59.0 °F 84% 30.25 in 10.0 mi East 6.9 mph - N/A   Overcast
2:12 AM 64.0 °F 59.0 °F 84% 30.25 in 10.0 mi ENE 8.1 mph - N/A   Overcast
2:53 AM 63.0 °F 57.0 °F 81% 30.25 in 10.0 mi East 8.1 mph - N/A   Overcast
3:53 AM 62.1 °F 55.0 °F 78% 30.24 in 10.0 mi ENE 10.4 mph - N/A   Overcast
4:44 AM 62.1 °F 55.0 °F 78% 30.24 in 10.0 mi ENE 10.4 mph - N/A   Overcast
4:53 AM 62.1 °F 55.0 °F 78% 30.24 in 10.0 mi ENE 8.1 mph - N/A   Overcast
5:53 AM 60.1 °F 55.0 °F 83% 30.25 in 10.0 mi NE 6.9 mph - N/A   Overcast
6:53 AM 60.1 °F 55.0 °F 83% 30.24 in 10.0 mi ENE 6.9 mph - N/A   Overcast
7:53 AM 60.1 °F 55.0 °F 83% 30.26 in 10.0 mi East 8.1 mph - N/A   Overcast
8:53 AM 60.1 °F 55.9 °F 86% 30.28 in 10.0 mi ENE 6.9 mph - N/A   Overcast
9:53 AM 61.0 °F 57.0 °F 87% 30.27 in 10.0 mi ENE 6.9 mph - 0.00 in Rain Light Rain
10:15 AM 61.0 °F 57.0 °F 87% 30.27 in 10.0 mi ENE 3.5 mph - 0.00 in Rain Light Rain
10:53 AM 61.0 °F 57.9 °F 90% 30.28 in 10.0 mi NE 4.6 mph - 0.00 in   Overcast
11:20 AM 62.1 °F 57.9 °F 86% 30.25 in 10.0 mi ENE 8.1 mph - 0.00 in Rain Light Rain
11:31 AM 62.1 °F 59.0 °F 90% 30.25 in 10.0 mi ENE 6.9 mph - 0.00 in   Overcast
11:53 AM 63.0 °F 60.1 °F 90% 30.25 in 10.0 mi ENE 5.8 mph - 0.00 in   Overcast
12:43 PM 64.9 °F 61.0 °F 87% 30.23 in 10.0 mi NE 8.1 mph - N/A   Overcast
12:53 PM 66.0 °F 62.1 °F 87% 30.23 in 10.0 mi ENE 6.9 mph - N/A   Overcast